Location: Sinnemahoning State Park
(41.4031°N, 78.0230°W)
Time: 02:59:06
(UTC-04:00)

Daily predictions for brighter satellites

Satellite Brightness Start Highest point End
(mag) Time Altitude Azimuth Time Altitude Azimuth Time Altitude Azimuth
Lacrosse 5 3.7 00:10:48 10° NW 00:13:25 27° NNW 00:13:25 27° NNW
CZ-2C R/B 4.0 00:13:29 10° N 00:16:47 36° NNW 00:16:47 36° NNW
CZ-4C R/B 3.5 00:26:52 36° N 00:26:52 36° N 00:30:52 10° NNE
ATLAS 5 CENTAUR R/B 3.4 00:27:20 10° NNW 00:31:12 43° NNW 00:31:12 43° NNW
ADEOS Rocket 3.8 01:08:55 10° NNE 01:14:09 53° NNE 01:14:09 53° NNE
Cosmos 1943 Rocket 4.3 01:11:54 10° NW 01:13:38 19° NW 01:13:38 19° NW
Mayak 1.8 01:13:58 10° N 01:14:37 14° N 01:14:37 14° N
SL-16 R/B 4.4 01:49:33 19° E 01:51:31 22° ENE 01:56:06 10° NNE
Gbstr 26 Del rocket 4.4 02:26:21 71° ENE 02:26:21 71° ENE 02:32:42 10° NE
Cosmos 1833 Rocket 4.1 02:32:35 31° ENE 02:32:35 31° ENE 02:36:23 10° NE
Resurs 1-4 Rocket 3.7 02:28:25 10° NE 02:32:02 28° ENE 02:32:02 28° ENE
Lacrosse 5 rocket 4.0 02:45:56 15° ENE 02:45:56 15° ENE 02:46:51 10° ENE
Cosmos 909 Rocket 4.3 02:46:34 10° NNW 02:52:47 64° NE 02:53:59 54° ESE
H-2A R/B 4.4 02:50:43 10° NNE 02:52:52 29° NNE 02:52:52 29° NNE
Meteor 2-4 Rocket 4.3 03:01:30 48° NNW 03:01:30 48° NNW 03:05:26 10° N
Exosat Rocket 4.4 02:57:45 10° NNW 03:03:39 69° ENE 03:06:37 39° SE
Cosmos 1025 Rocket 4.4 03:16:11 36° NE 03:16:11 36° NE 03:19:06 10° NNE
Cosmos 2034 Rocket 4.3 03:17:52 53° WNW 03:17:52 53° WNW 03:23:24 10° N
Cosmos 2278 4.0 03:14:12 10° NNW 03:18:44 59° NNW 03:18:44 59° NNW
USA 215 4.3 03:20:06 10° ENE 03:25:43 30° SE 03:26:55 28° SE
Cosmos 1980 Rocket 3.1 03:21:57 10° NNW 03:27:20 45° ENE 03:32:43 10° SE
Cosmos 1607 3.9 03:29:40 71° W 03:30:07 74° NW 03:36:38 10° NNE
CZ-2D R/B 2.1 03:24:52 10° NNE 03:30:01 80° NNW 03:30:01 80° NNW
Cosmos 1697 Rocket 2.6 03:25:07 10° NNW 03:30:49 83° ENE 03:31:12 77° ESE
Cosmos 1092 Rocket 3.8 03:26:05 10° N 03:32:19 80° W 03:32:42 76° SW
SL-16 R/B 2.5 03:34:38 67° W 03:34:38 67° W 03:40:49 10° NNW
Cosmos 2082 Rocket 2.1 03:35:02 79° WNW 03:35:02 79° WNW 03:40:39 10° NNE
UNKNOWN OBJECT B 4.4 03:31:46 10° NE 03:34:51 29° E 03:34:51 29° E
Cosmos 304 Rocket 4.3 03:35:16 51° ESE 03:35:16 51° ESE 03:39:54 10° NNE
Lacrosse 4 Rocket 2.7 03:30:50 10° NNW 03:33:35 37° NNW 03:33:35 37° NNW
Cosmos 1867 3.5 03:31:57 10° NNW 03:37:28 88° ENE 03:37:36 85° ESE
Spot 4 Rocket 4.0 03:34:20 10° NNE 03:39:31 78° ESE 03:39:40 77° SE
MOZ.5/SAFIR/RUBIN 5/SL-8 4.0 03:40:16 67° N 03:40:16 67° N 03:44:23 10° NNW
Meteor 1-15 Rocket 4.4 03:36:54 10° NNW 03:42:20 58° WNW 03:42:20 58° WNW
ARIANE 5 R/B 2.4 03:38:02 10° NNE 03:43:18 81° ESE 03:43:38 76° SSE
Iridium 4 Rocket 3.9 03:47:03 43° NNW 03:47:03 43° NNW 03:50:10 10° N
IRS-1C 4.2 03:42:23 10° N 03:47:36 59° WNW 03:47:36 59° WNW
BREEZE-M R/B 4.3 03:51:25 27° ESE 03:51:25 27° ESE 03:54:38 10° ENE
Cosmos 2322 Rocket 4.3 03:49:34 10° N 03:54:15 26° NE 03:58:53 10° ESE
Cosmos 1627 Rocket 4.4 03:52:17 10° NNW 03:58:39 73° W 04:00:25 49° SSW
ADEOS II 3.1 03:56:48 10° NNE 04:01:47 41° E 04:04:46 22° SSE
Cosmos 1726 Rocket 4.0 03:58:10 10° N 04:02:26 59° E 04:03:44 40° SE
Okean 1-7 Rocket 3.4 04:02:59 83° W 04:03:00 83° W 04:07:33 10° N
IRS-1D 3.8 04:00:33 10° N 04:05:30 48° WNW 04:05:48 48° W
Cosmos 1356 Rocket 3.3 04:05:50 76° N 04:05:50 76° N 04:09:34 10° N
CZ-2D R/B 3.4 04:03:58 10° NNE 04:08:03 78° E 04:08:19 74° SSE
ADEOS 3.6 04:03:03 10° NNE 04:08:18 80° ESE 04:09:55 45° S
Cosmos 1544 3.7 04:07:54 10° N 04:10:42 49° NNW 04:10:42 49° NNW
Resurs 1-4 Rocket 2.8 04:08:06 10° N 04:12:49 35° WNW 04:13:07 34° WNW
Cosmos 1833 Rocket 3.5 04:14:17 33° WNW 04:15:13 35° WNW 04:20:23 10° N
Cosmos 2058 Rocket 3.5 04:13:56 10° N 04:18:19 62° E 04:21:28 19° SSE
Helios 1A Rocket 3.0 04:14:44 10° N 04:18:50 57° WNW 04:18:53 57° WNW
Cosmos 1805 4.1 04:15:20 10° N 04:19:08 49° E 04:21:47 18° SSE
Cosmos 1634 Rocket 4.4 04:18:31 39° WSW 04:19:47 43° WNW 04:25:43 10° N
Cosmos 2180 Rocket 4.5 04:18:07 30° S 04:21:28 87° W 04:27:55 10° N
Lacrosse 5 rocket 2.3 04:21:36 33° WNW 04:22:12 35° NW 04:26:00 10° NNE
Cosmos 1766 3.1 04:19:19 10° N 04:23:13 87° E 04:24:03 54° SSE
Cosmos 841 Rocket 4.2 04:25:09 21° S 04:28:25 50° ESE 04:33:26 10° NNE
Cosmos 1606 Rocket 3.6 04:25:34 10° NNW 04:29:47 53° W 04:30:10 51° WSW
Cosmos 2360 4.2 04:25:16 10° NNW 04:30:51 57° WSW 04:36:23 10° S
SL-8 R/B 4.4 04:31:59 34° S 04:31:59 34° S 04:35:22 10° SSE
Cosmos 2228 2.8 04:31:02 10° N 04:35:20 78° W 04:37:29 28° S
Cosmos 2279 Rocket 4.1 04:32:48 33° SW 04:35:29 55° W 04:41:39 10° N
Cosmos 1892 Rocket 3.7 04:39:59 40° SW 04:41:11 54° W 04:45:31 10° N
SJ 16-02 3.6 04:41:57 10° N 04:45:47 28° ENE 04:49:35 10° ESE
CZ-4B R/B 4.3 04:46:32 10° NNE 04:50:32 38° E 04:54:18 10° SSE
Meteor 1-21 4.2 04:47:14 21° SSW 04:51:11 73° W 04:56:49 10° N
Cosmos 540 Rocket 4.4 04:47:21 10° S 04:52:13 46° ESE 04:57:08 10° NNE
COSMOS 2487 4.2 04:52:34 19° WNW 04:52:34 19° WNW 04:55:05 10° NNW
ATLAS 3B R/B 2.9 04:47:02 18° SSW 04:52:33 73° ESE 04:59:29 10° NE
NOSS 3-2 (A) 4.1 04:50:07 13° S 04:55:11 49° ESE 05:01:20 10° NE
Cosmos 1763 Rocket 3.6 04:53:31 25° SW 04:56:32 63° WNW 05:01:50 10° NNE
Timation 2 Rocket 3.8 04:52:47 21° SSW 04:56:56 80° WNW 05:02:57 10° NNE
Cosmos 1898 Rocket 4.1 04:59:12 10° NW 05:03:54 35° W 05:08:36 10° SSW
Cosmos 1733 3.4 05:00:38 10° N 05:04:30 76° E 05:08:22 10° SSE
Cosmos 2360 Rocket 3.6 05:03:30 10° N 05:08:50 42° ENE 05:14:08 10° SE
USA 215 3.3 05:02:32 10° NE 05:09:04 76° NW 05:14:17 17° WSW
UNKNOWN OBJECT B 4.3 05:06:41 10° NNW 05:09:28 19° WNW 05:10:18 18° W
CZ-2D R/B 4.1 05:07:25 10° NW 05:09:29 12° WNW 05:11:21 10° WNW
Cosmos 1980 Rocket 3.1 05:06:31 10° NW 05:11:02 25° WSW 05:15:16 11° SSW
USA 161 3.8 05:09:42 10° SE 05:12:23 29° ENE 05:15:03 10° N
Okean O Rocket 3.0 05:08:42 10° NNE 05:12:48 39° E 05:16:52 10° SSE
Cosmos 1697 Rocket 4.5 05:11:28 10° WNW 05:12:51 12° W 05:12:51 12° W
ATLAS CENTAUR R/B 4.0 05:10:58 10° N 05:14:37 25° NE 05:18:26 10° ESE
Cosmos 1125 Rocket 4.4 05:11:38 10° N 05:16:52 54° ENE 05:22:02 10° SE
Cosmos 1937 Rocket 4.0 05:12:38 10° NW 05:17:23 37° WSW 05:22:04 10° SSW
Cosmos 1470 2.8 05:15:15 10° N 05:19:16 86° E 05:23:14 10° S
Cosmos 2082 Rocket 4.2 05:17:15 10° WNW 05:20:02 14° NW 05:22:50 10° NNW
Cosmos 2266 Rocket 4.1 05:14:19 10° NNW 05:20:11 53° W 05:26:07 10° SSW
SL-16 R/B 2.2 05:16:01 10° NNW 05:21:38 65° WSW 05:27:14 10° S
ARIANE 5 R/B 4.5 05:19:06 10° NNW 05:21:42 14° WNW 05:23:59 11° W
DNEPR-1 R/B 3.5 05:29:30 11° SW 05:33:34 85° NW 05:38:09 10° NNE
Cosmos 2322 Rocket 2.4 05:33:08 10° NW 05:38:33 49° WSW 05:43:54 10° S
Aureole 2 Rocket 2.9 05:35:28 10° NNW 05:39:20 72° ENE 05:42:55 10° SSE
Cosmos 292 Rocket 4.3 05:36:15 10° SW 05:40:51 43° WNW 05:45:27 10° N
ADEOS II 3.2 05:36:59 10° N 05:41:15 26° WNW 05:45:29 10° WSW
Cosmos 1707 2.7 05:37:55 10° SSW 05:41:45 65° W 05:45:37 10° N
Cosmos 836 Rocket 4.5 05:36:42 10° SSW 05:41:55 78° WNW 05:47:08 10° NNE
Cosmos 1833 4.4 05:36:15 10° SSW 05:42:04 85° ESE 05:47:54 10° NNE
USA 267 3.8 05:36:54 10° ESE 05:43:21 65° NE 05:49:49 10° NW
Cosmos 1953 2.8 05:39:37 10° NNW 05:43:26 38° W 05:47:12 10° SSW
PAYLOAD B 4.4 05:37:55 10° NNE 05:43:34 85° ESE 05:49:10 10° SSW
CZ-4B R/B 3.9 05:43:56 10° NNE 05:47:43 81° E 05:51:39 10° S
PSLV R/B 4.1 05:44:01 10° N 05:47:44 45° WNW 05:51:21 10° SW
PSLV R/B 4.3 05:44:56 10° N 05:48:42 33° WNW 05:52:27 10° SW
Cosmos 372 Rocket 3.9 05:45:12 10° NNW 05:50:26 72° WSW 05:55:34 10° S
Cosmos 1953 Rocket 4.2 05:46:07 10° S 05:50:32 62° E 05:54:58 10° NNE
USA 238 DEB 4.2 05:44:04 10° WSW 05:50:40 48° NW 05:57:24 10° NNE
USA 238 4.2 05:44:09 10° WSW 05:50:46 48° NW 05:57:31 10° NNE
ERBS 3.9 05:47:47 10° SSW 05:50:49 31° SE 05:53:52 10° ENE
Meteor 1-31 Rocket 2.8 05:47:19 10° NNE 05:51:14 86° W 05:55:04 10° SSW
Cosmos 1400 Rocket 4.3 05:47:49 10° SSE 05:51:28 39° E 05:55:11 10° NNE
Cosmos 1812 Rocket 4.1 05:51:20 10° NNW 05:55:29 38° W 05:59:35 10° SSW
Cosmos 1378 4.1 05:54:30 10° SW 05:57:46 28° WNW 06:01:05 10° NNW
CZ-4B R/B 3.3 05:54:51 10° NNE 06:00:28 83° WNW 06:05:56 10° SSW
